THOR ABLESTAR DEB, 141

Orbit data source: Space-Track

THOR ABLESTAR DEB, 141 is space debris in LEO originally from a launch on Thu, 29 Jun 1961 UTC launched from the Air Force Eastern Test Range (AFETR). Debris objects in space refer to the collection of defunct objects orbiting the Earth. Examples of debris include non-operational satellites, rocket bodies, and fragments generated from explosions, collisions, or faulty payload assembly.

Loading next visibility...
Identifier
141, 1961-015AB
Orbit
LEO
Country
Flag of USUS
Related business
Manufacturer
Unknown
Mission
Spacecraft
Bus & Motor
Unknown
Mass
Unknown
Launch date (UTC)
1961-06-29 (64 years ago)
Launch vehicle
Unknown
Launch site
Air Force Eastern Test Range (AFETR)
Object type
Payload
Rocket body
Debris
Shape & HBR
Unknown shape, 0.5 m
Radar Cross Section
Medium (>0.1 m² and <1 m²)

Expand to show TLE details & history
Last TLE update: 1 day ago

TLE from 1 day ago
0 THOR ABLESTAR DEB
1 00141U 61015AB  25306.23175973  .00000344  00000-0  34417-3 0  9995
2 00141  66.5882 241.2234 0057651 202.2492 157.6082 13.88794509240308
Epoch: 2025-11-02T05:33Z
TLE epoch observation values (Epoch: 2025-11-02T05:33:44.040Z)
Latitude
-0.00003°
Longitude
116.03944°
Altitude
973.926 km
Speed
7.345 km/s
True Right ascension
16h 04m 53s
True Declination
0° 00' 00"
Sunlit
Object was in daylight at epoch
Visualization orbit readout
Latitude
Unknown
Longitude
Unknown
Altitude
Unknown
Speed
Unknown
Apparent Right ascension
Unknown
Apparent Declination
Unknown
Sunlit
N/A
Visualization observer readout
Local Sidereal Time
11:24:59
Azimuth
Unknown
Elevation
Unknown
Doppler factor
Unknown
Orbital elements
Apogee altitude
973.417 km
Perigee altitude
889.138 km
Semi-major axis
7,309.415 km
Eccentricity
0.00577
Inclination
66.5882°
RAAN
241.2234°
Arg. of periapsis
202.2492°
True anomaly
157.85819°
Mean anomaly
157.6082°
Eccentric anomaly
157.73336°
Mean motion
3.47312 °/min
Orbital period
103.65 mins
BSTAR
0.00034417
Loading maneuver chart data...
Computing Atmospheric mass density...
Loading historical data...
Loading historical data...
Loading historical data...
Loading historical data...
Loading historical data...
Loading historical data...
Loading historical data...

Documentation

Showing up to 5 results
|